FW1444 Weather Reports


Display with metric or nautical units.
time (UTC)temp
F
wind
direction
speed
MPH
gust
MPH
rain 1hr
in
rain 24hr
in
rain mn
in
humidity
%
barometer
mb
20191023173920 52 100 0.0 3.0 0.00 0.00 0.00 94 1011.6
20191023172919 52 99 1.0 6.0 0.00 0.00 0.00 94 1011.8
20191023171919 53 88 2.0 7.0 0.00 0.00 0.00 94 1012.1
20191023170919 53 93 0.0 7.0 0.00 0.00 0.00 93 1011.8
20191023163918 53 90 2.0 8.0 0.00 0.00 0.00 93 1012.3
20191023163408 53 103 3.0 8.0 0.00 0.00 0.00 93 1012.3
20191023162920 53 117 2.0 8.0 0.00 0.00 0.00 92 1012.2
20191023161919 53 80 2.0 6.0 0.00 0.00 0.00 92 1012.2
20191023160409 53 107 2.0 7.0 0.00 0.00 0.00 92 1012.3
20191023155918 53 106 3.0 7.0 0.00 0.00 0.00 92 1012.2
20191023155408 53 90 3.0 8.0 0.00 0.00 0.00 92 1012.2
20191023154919 53 100 2.0 9.0 0.00 0.00 0.00 92 1012.3
20191023153920 53 99 5.0 9.0 0.00 0.00 0.00 92 1012.3
20191023151919 54 109 2.0 12.0 0.00 0.00 0.00 91 1012.5
20191023151408 54 121 6.0 12.0 0.00 0.00 0.00 91 1012.5
20191023150919 54 97 5.0 12.0 0.00 0.00 0.00 91 1012.7
20191023141408 54 96 3.0 9.0 0.00 0.01 0.00 91 1013.2
20191023140919 54 104 3.0 10.0 0.00 0.01 0.00 91 1013.4
20191023134919 54 107 7.0 12.0 0.00 0.01 0.00 90 1013.3
20191023133408 54 105 5.0 14.0 0.00 0.01 0.00 90 1013.4
20191023132919 54 121 5.0 14.0 0.00 0.01 0.00 90 1013.4
20191023131408 54 104 7.0 10.0 0.00 0.01 0.00 90 1013.7
20191023130919 54 102 6.0 10.0 0.00 0.01 0.00 90 1013.8
20191023123919 54 150 5.0 13.0 0.00 0.01 0.00 90 1014.4
20191023110409 53 111 3.0 12.0 0.00 0.01 0.00 94 1015.1
20191023105919 53 104 6.0 10.0 0.00 0.01 0.00 95 1015.0
20191023103408 53 97 3.0 9.0 0.00 0.01 0.00 95 1015.5
20191023102919 52 69 2.0 9.0 0.00 0.01 0.00 95 1015.5
20191023101919 52 82 3.0 7.0 0.00 0.01 0.00 95 1015.7
20191023100408 52 108 5.0 9.0 0.00 0.01 0.00 96 1015.8
20191023095918 52 65 2.0 9.0 0.00 0.01 0.00 96 1016.0
20191023094918 52 114 3.0 12.0 0.00 0.01 0.00 96 1015.9
20191023094407 52 103 6.0 12.0 0.00 0.01 0.00 96 1015.9
20191023093918 52 79 6.0 12.0 0.00 0.01 0.00 96 1015.8
20191023091918 51 111 4.0 8.0 0.00 0.01 0.00 97 1015.6
20191023085919 51 129 0.0 3.0 0.00 0.01 0.00 97 1016.0
20191023084919 51 105 1.0 3.0 0.00 0.01 0.00 97 1016.0
20191023083409 51 78 0.0 2.0 0.00 0.01 0.00 97 1016.3
20191023082919 51 97 0.0 2.0 0.00 0.01 0.00 97 1016.4
20191023081917 51 91 0.0 1.0 0.00 0.01 0.00 97 1016.4
20191023080919 51 85 0.0 1.0 0.00 0.01 0.00 97 1016.6
20191023075919 51 87 0.0 2.0 0.00 0.01 0.00 97 1016.7
20191023074418 51 72 0.0 3.0 0.00 0.01 0.00 97 1016.6
20191023071919 50 92 2.0 8.0 0.00 0.01 0.00 96 1016.1
20191023071408 50 90 2.0 8.0 0.00 0.01 0.00 96 1016.2
20191023070918 50 112 2.0 8.0 0.00 0.01 0.00 96 1016.2
20191023070408 50 89 3.0 8.0 0.00 0.01 0.00 96 1016.3
20191023065918 51 77 2.0 7.0 0.00 0.01 0.00 96 1016.3
20191023063918 51 104 2.0 7.0 0.00 0.02 0.00 95 1016.4
20191023061917 50 99 1.0 3.0 0.00 0.02 0.00 95 1016.7
20191023060918 50 105 0.0 3.0 0.00 0.02 0.00 95 1016.7
20191023054918 50 104 1.0 7.0 0.00 0.02 0.00 95 1016.5
20191023051918 49 108 0.0 0.0 0.00 0.02 0.00 96 1016.7
20191023050918 49 65 0.0 0.0 0.00 0.02 0.00 96 1017.0
20191023050408 49 65 0.0 0.0 0.00 0.02 0.00 96 1016.9
20191023045917 49 63 0.0 0.0 0.00 0.02 0.00 96 1017.1
20191023044918 49 67 0.0 0.0 0.00 0.02 0.00 96 1017.2
20191023043918 49 67 0.0 0.0 0.00 0.02 0.00 95 1017.3
20191023042917 49 67 0.0 0.0 0.00 0.02 0.00 95 1017.4
20191023041916 49 64 0.0 0.0 0.00 0.02 0.00 95 1017.3
20191023040917 49 61 0.0 0.0 0.00 0.02 0.00 95 1017.4
20191023035917 49 58 0.0 0.0 0.00 0.02 0.00 95 1017.4
20191023034918 49 58 0.0 0.0 0.00 0.02 0.00 95 1017.4
20191023034122 49 58 0.0 0.0 0.00 0.02 0.00 95 1017.2
20191023032917 49 58 0.0 1.0 0.00 0.02 0.00 95 1017.6
20191023031917 49 65 0.0 2.0 0.00 0.02 0.00 95 1017.7
20191023030919 49 76 0.0 3.0 0.00 0.02 0.00 95 1017.5
20191023025917 49 76 0.0 5.0 0.00 0.02 0.00 95 1017.8
20191023024916 48 57 0.0 1.0 0.00 0.02 0.00 95 1017.8
20191023023918 48 104 0.0 1.0 0.00 0.02 0.00 95 1017.9
20191023022918 48 77 0.0 0.0 0.00 0.02 0.00 95 1018.0
20191023021918 48 81 0.0 0.0 0.00 0.02 0.00 95 1018.2
20191023020917 48 75 0.0 0.0 0.00 0.02 0.00 95 1018.5
20191023015917 48 55 0.0 0.0 0.00 0.02 0.00 95 1018.6
20191023014917 48 51 0.0 0.0 0.00 0.02 0.00 94 1018.8
20191023013916 48 51 0.0 0.0 0.00 0.02 0.00 94 1018.8
20191023012917 48 52 0.0 2.0 0.00 0.02 0.00 94 1018.8
20191023011418 49 53 0.0 2.0 0.00 0.02 0.00 94 1018.8
20191023010418 48 104 0.0 3.0 0.00 0.02 0.00 94 1018.9
20191023005418 48 97 0.0 3.0 0.00 0.02 0.00 94 1019.1
20191023004418 48 100 0.0 0.0 0.00 0.02 0.00 94 1019.3
20191023003418 48 101 0.0 0.0 0.00 0.02 0.00 93 1019.5
20191023002418 49 101 0.0 0.0 0.00 0.02 0.00 94 1019.6
20191023001418 48 97 0.0 0.0 0.00 0.02 0.00 94 1019.6
20191023000419 48 97 0.0 0.0 0.00 0.02 0.00 95 1019.8
20191022235417 48 95 0.0 0.0 0.00 0.02 0.00 95 1019.9
20191022234419 48 95 0.0 0.0 0.00 0.02 0.00 95 1019.9
20191022233418 48 95 0.0 0.0 0.00 0.02 0.00 95 1020.1
20191022232418 48 95 0.0 0.0 0.00 0.02 0.00 95 1020.6
20191022231418 48 94 0.0 0.0 0.00 0.02 0.00 94 1020.8
20191022230419 49 94 0.0 0.0 0.00 0.02 0.00 94 1020.9
20191022225419 49 94 0.0 0.0 0.00 0.02 0.00 93 1020.7
20191022224419 49 94 0.0 0.0 0.00 0.02 0.00 93 1020.8
20191022223417 50 94 0.0 0.0 0.00 0.02 0.00 93 1020.9
20191022222418 50 80 0.0 0.0 0.00 0.02 0.00 93 1021.0
20191022221418 50 80 0.0 0.0 0.00 0.02 0.00 93 1021.2
20191022220907 50 80 0.0 0.0 0.00 0.02 0.00 93 1021.2
20191022215917 50 78 0.0 0.0 0.00 0.02 0.00 93 1021.3
20191022214916 50 78 0.0 0.0 0.00 0.02 0.00 93 1021.5
20191022213917 50 78 0.0 0.0 0.00 0.02 0.00 93 1021.6
20191022212917 50 78 0.0 0.0 0.00 0.02 0.00 92 1021.6
20191022211917 50 78 0.0 0.0 0.00 0.02 0.00 92 1021.7
20191022210918 51 78 0.0 0.0 0.00 0.02 0.00 91 1021.8
20191022205917 51 78 0.0 0.0 0.00 0.02 0.00 91 1021.9
20191022204918 51 78 0.0 0.0 0.00 0.02 0.00 91 1021.9
20191022203918 51 77 0.0 0.0 0.00 0.02 0.00 90 1022.0
20191022202917 52 77 0.0 0.0 0.00 0.02 0.00 90 1021.9
20191022201919 51 79 0.0 0.0 0.00 0.02 0.00 91 1021.9
20191022200917 51 87 0.0 0.0 0.00 0.02 0.00 93 1022.0
20191022195918 51 86 0.0 0.0 0.00 0.02 0.00 92 1022.1
20191022194917 51 86 0.0 0.0 0.00 0.02 0.00 92 1022.0
20191022193917 51 86 0.0 0.0 0.00 0.02 0.00 92 1022.0
20191022192920 52 86 0.0 0.0 0.00 0.02 0.00 91 1021.9
20191022191917 52 85 0.0 0.0 0.00 0.02 0.00 91 1021.9
20191022190917 52 87 0.0 0.0 0.00 0.02 0.00 92 1021.9
20191022185917 51 87 0.0 0.0 0.00 0.02 0.00 93 1021.9
20191022184917 51 80 0.0 0.0 0.00 0.02 0.00 93 1022.1
20191022183918 51 80 0.0 0.0 0.00 0.02 0.00 93 1022.1
20191022182917 51 80 0.0 0.0 0.00 0.02 0.00 92 1022.3
20191022181917 52 80 0.0 0.0 0.00 0.02 0.00 92 1022.4
20191022180917 52 80 0.0 0.0 0.00 0.02 0.00 90 1022.7
20191022175918 53 80 0.0 0.0 0.00 0.02 0.00 90 1022.8
20191022174917 53 80 0.0 0.0 0.00 0.02 0.00 89 1022.8